Track STARLINK-4760 now! 10-day predictions STARLINK-4760 is classified as:
1 53828U 22114L 24325.88058169 .00001559 00000-0 11604-3 0 9992 2 53828 53.2175 271.0305 0001628 105.4193 254.6979 15.08841284120768